W7CBM Weather Reports


Display with metric or nautical units.
time (UTC)temp
F
wind
direction
speed
MPH
gust
MPH
rain 1hr
in
rain 24hr
in
rain mn
in
humidity
%
barometer
mb
20260505025032 67 196 11.0 11.0 0.00 0.00 0.00 36 1007.3
20260505024032 67 209 3.0 11.0 0.00 0.00 0.00 35 1007.2
20260505023532 67 209 4.0 11.0 0.00 0.00 0.00 35 1007.2
20260505022602 68 206 4.0 10.0 0.00 0.00 0.00 35 1007.1
20260505022102 68 184 4.0 10.0 0.00 0.00 0.00 34 1007.1
20260505021602 68 188 4.0 10.0 0.00 0.00 0.00 34 1006.2
20260505021032 68 215 4.0 9.0 0.00 0.00 0.00 34 1006.1
20260505020532 68 174 6.0 10.0 0.00 0.00 0.00 34 1006.1
20260505020032 68 213 3.0 10.0 0.00 0.00 0.00 34 1006.2
20260505015532 68 163 4.0 9.0 0.00 0.00 0.00 33 1006.1
20260505015032 69 236 5.0 9.0 0.00 0.00 0.00 33 1006.1
20260505014102 68 207 9.0 10.0 0.00 0.00 0.00 32 1006.1
20260505013532 68 170 3.0 5.0 0.00 0.00 0.00 35 1006.2
20260505013031 68 55 0.0 1.0 0.00 0.00 0.00 36 1006.2
20260505012531 68 54 0.0 1.0 0.00 0.00 0.00 36 1006.3
20260505012101 69 55 0.0 2.0 0.00 0.00 0.00 35 1006.3
20260505011532 69 55 1.0 2.0 0.00 0.00 0.00 34 1005.4
20260505011032 69 54 1.0 2.0 0.00 0.00 0.00 33 1005.4
20260505010601 69 54 0.0 2.0 0.00 0.00 0.00 35 1005.5
20260505010031 69 55 1.0 2.0 0.00 0.00 0.00 35 1005.5
20260505005531 68 55 1.0 2.0 0.00 0.00 0.00 35 1005.5
20260505005032 68 54 0.0 2.0 0.00 0.00 0.00 35 1005.5
20260505004601 68 54 0.0 5.0 0.00 0.00 0.00 34 1005.5
20260505003531 68 55 3.0 12.0 0.00 0.00 0.00 34 1005.6
20260505003101 68 86 8.0 12.0 0.00 0.00 0.00 34 1005.6
20260505001601 69 27 3.0 13.0 0.00 0.00 0.00 33 1006.3
20260505001031 69 53 5.0 17.0 0.00 0.00 0.00 34 1006.3
20260505000601 69 21 2.0 17.0 0.00 0.00 0.00 34 1006.4
20260505000101 69 58 6.0 13.0 0.00 0.00 0.00 34 1006.5
20260504235601 69 48 4.0 14.0 0.00 0.00 0.00 35 1006.5
20260504235100 68 36 4.0 16.0 0.00 0.00 0.00 38 1006.3
20260504234601 67 68 12.0 16.0 0.00 0.00 0.00 38 1006.3
20260504234101 67 50 5.0 12.0 0.00 0.00 0.00 39 1006.3
20260504233601 67 3 4.0 13.0 0.00 0.00 0.00 39 1006.4
20260504233101 67 42 4.0 17.0 0.00 0.00 0.00 39 1006.5
20260504232600 67 7 10.0 17.0 0.00 0.00 0.00 38 1006.5
20260504232101 68 80 11.0 14.0 0.00 0.00 0.00 38 1006.4
20260504231601 68 7 8.0 14.0 0.00 0.00 0.00 39 1006.7
20260504231031 67 90 7.0 10.0 0.00 0.00 0.00 41 1006.8
20260504230531 67 82 8.0 8.0 0.00 0.00 0.00 41 1007.0
20260504230030 67 67 2.0 9.0 0.00 0.00 0.00 43 1007.2
20260504225600 67 53 4.0 9.0 0.00 0.00 0.00 43 1007.3
20260504225100 66 61 6.0 9.0 0.00 0.00 0.00 44 1006.9
20260504224600 65 1 6.0 9.0 0.00 0.00 0.00 42 1006.7
20260504224100 65 5 3.0 11.0 0.00 0.00 0.00 44 1006.8
20260504223600 65 307 5.0 16.0 0.00 0.00 0.00 43 1007.0
20260504223030 64 298 3.0 16.0 0.00 0.00 0.00 46 1006.9
20260504222600 63 294 6.0 20.0 0.00 0.00 0.00 50 1006.9
20260504222100 63 356 6.0 27.0 0.00 0.00 0.00 46 1007.0
20260504221600 65 29 12.0 27.0 0.00 0.00 0.00 45 1007.6
20260504220100 70 104 2.0 11.0 0.00 0.00 0.00 29 1007.7
20260504215559 70 157 6.0 13.0 0.00 0.00 0.00 29 1007.7
20260504215029 70 157 9.0 16.0 0.00 0.00 0.00 30 1007.7
20260504214529 70 166 8.0 16.0 0.00 0.00 0.00 30 1007.6
20260504214030 71 167 13.0 14.0 0.00 0.00 0.00 28 1007.2
20260504213100 72 169 5.0 12.0 0.00 0.00 0.00 27 1007.4
20260504212559 72 259 4.0 12.0 0.00 0.00 0.00 27 1007.3
20260504212059 73 205 2.0 6.0 0.00 0.00 0.00 27 1007.4
20260504211059 74 205 3.0 8.0 0.00 0.00 0.00 26 1007.2
20260504210559 75 296 1.0 4.0 0.00 0.00 0.00 26 1007.2
20260504205559 75 295 1.0 8.0 0.00 0.00 0.00 27 1007.2
20260504205059 75 296 3.0 8.0 0.00 0.00 0.00 26 1007.3
20260504204559 75 282 4.0 7.0 0.00 0.00 0.00 27 1007.3
20260504204059 75 281 1.0 7.0 0.00 0.00 0.00 26 1007.2
20260504203559 75 280 3.0 7.0 0.00 0.00 0.00 25 1007.3
20260504203059 75 232 2.0 7.0 0.00 0.00 0.00 25 1007.4
20260504202558 76 213 5.0 8.0 0.00 0.00 0.00 23 1007.6
20260504202059 76 255 2.0 8.0 0.00 0.00 0.00 24 1007.7
20260504201059 76 244 5.0 7.0 0.00 0.00 0.00 24 1007.8
20260504200059 76 232 2.0 10.0 0.00 0.00 0.00 24 1007.8
20260504195529 75 190 4.0 10.0 0.00 0.00 0.00 24 1007.5
20260504194559 75 154 4.0 6.0 0.00 0.00 0.00 24 1007.5
20260504193559 75 275 2.0 10.0 0.00 0.00 0.00 22 1007.8
20260504193058 76 271 9.0 11.0 0.00 0.00 0.00 22 1008.2
20260504192558 77 282 4.0 11.0 0.00 0.00 0.00 23 1008.1
20260504192058 77 288 6.0 10.0 0.00 0.00 0.00 23 1008.2
20260504191558 77 206 3.0 12.0 0.00 0.00 0.00 23 1007.4
20260504191058 77 193 10.0 12.0 0.00 0.00 0.00 22 1007.3
20260504190058 76 296 4.0 10.0 0.00 0.00 0.00 24 1007.3
20260504185558 76 179 8.0 9.0 0.00 0.00 0.00 24 1007.4
20260504185058 75 204 2.0 10.0 0.00 0.00 0.00 26 1007.4
20260504184558 75 205 4.0 12.0 0.00 0.00 0.00 24 1007.5
20260504184058 76 223 3.0 12.0 0.00 0.00 0.00 24 1007.6
20260504183058 75 224 3.0 12.0 0.00 0.00 0.00 24 1007.6
20260504182557 75 212 3.0 12.0 0.00 0.00 0.00 26 1007.7
20260504182057 75 192 4.0 10.0 0.00 0.00 0.00 24 1007.7
20260504181558 75 255 2.0 10.0 0.00 0.00 0.00 25 1008.1
20260504180557 74 194 7.0 12.0 0.00 0.00 0.00 26 1008.3
20260504180057 74 210 5.0 12.0 0.00 0.00 0.00 24 1008.3
20260504175557 74 255 3.0 11.0 0.00 0.00 0.00 26 1008.4
20260504175057 74 161 5.0 11.0 0.00 0.00 0.00 27 1008.5
20260504174558 74 209 6.0 13.0 0.00 0.00 0.00 26 1008.4
20260504173557 73 179 9.0 13.0 0.00 0.00 0.00 28 1008.2
20260504173057 73 253 3.0 14.0 0.00 0.00 0.00 28 1008.4
20260504172558 73 184 8.0 14.0 0.00 0.00 0.00 28 1008.4
20260504172057 73 207 5.0 11.0 0.00 0.00 0.00 29 1008.5
20260504171057 73 196 7.0 12.0 0.00 0.00 0.00 29 1009.1
20260504170557 72 184 0.0 12.0 0.00 0.00 0.00 29 1009.1
20260504151056 66 131 2.0 2.0 0.00 0.00 0.00 35 1010.1
20260504150556 66 131 1.0 2.0 0.00 0.00 0.00 32 1010.2
20260504141055 59 130 0.0 2.0 0.00 0.00 0.00 41 1010.1
20260504140555 59 132 1.0 2.0 0.00 0.00 0.00 43 1010.1
20260504130554 54 131 0.0 3.0 0.00 0.00 0.00 43 1010.0
20260504110554 60 12 2.0 4.0 0.00 0.00 0.00 32 1011.2
20260504100553 58 189 1.0 5.0 0.00 0.00 0.00 37 1010.8
20260504081552 56 282 4.0 6.0 0.00 0.00 0.00 41 1010.9
20260504081053 54 288 2.0 6.0 0.00 0.00 0.00 43 1010.5
20260504080553 53 290 0.0 8.0 0.00 0.00 0.00 46 1010.5
20260504050551 59 336 1.0 2.0 0.00 0.00 0.00 45 1010.9
20260504045551 60 337 0.0 2.0 0.00 0.00 0.00 43 1011.0
20260504044551 60 336 0.0 0.0 0.00 0.00 0.00 42 1011.1
20260504044051 60 338 0.0 0.0 0.00 0.00 0.00 41 1011.0
20260504043550 61 337 0.0 1.0 0.00 0.00 0.00 40 1011.3
20260504043051 61 337 0.0 1.0 0.00 0.00 0.00 40 1011.3
20260504041550 62 336 1.0 2.0 0.00 0.00 0.00 40 1010.8
20260504041051 62 336 1.0 1.0 0.00 0.00 0.00 39 1010.8
20260504040550 63 336 0.0 1.0 0.00 0.00 0.00 38 1010.8
20260504035550 63 336 0.0 2.0 0.00 0.00 0.00 36 1010.8
20260504035050 64 336 1.0 1.0 0.00 0.00 0.00 35 1010.9
20260504034550 64 336 0.0 1.0 0.00 0.00 0.00 35 1010.8
20260504034050 64 337 1.0 2.0 0.00 0.00 0.00 34 1010.9
20260504033050 65 337 0.0 1.0 0.00 0.00 0.00 33 1010.9
20260504032050 65 336 0.0 2.0 0.00 0.00 0.00 32 1010.9
20260504031050 66 337 0.0 2.0 0.00 0.00 0.00 30 1010.6
20260504030550 66 336 0.0 2.0 0.00 0.00 0.00 29 1010.5
20260504025550 67 337 0.0 2.0 0.00 0.00 0.00 28 1010.5